Home   Weather   Buenos Aires   Past weeks

Flag for Argentina Past Weather in Buenos Aires, Argentina — Yesterday and Last 2 Weeks

Now
59 °F

Sunny.


Feels Like: 59 °F
Forecast: 48 / 59 °F
Wind: 2 mph from North

Location: Buenos Aires Airport

Current Time: Aug 16, 2017 at 11:53:19 am

Latest Report: Aug 16, 2017 at 11:00 am


Visibility: 10 mi

Pressure: 30.24 "Hg

Humidity: 45%

Dew Point: 37 °F

Location of Buenos AiresLocation

Past Weather in Buenos Aires — Graph

°F

Buenos Aires Temperature Yesterday

Maximum temperature yesterday: 68 °F (at 3:00 pm)
Minimum temperature yesterday: 54 °F (at 6:00 am)
Average temperature yesterday: 60 °F

High & Low Weather Summary for the Past Weeks

 TemperatureHumidityPressure
High68 °F (Aug 15, 3:00 pm)100% (Aug 1, 2:00 pm)30.33 "Hg (Aug 1, 2:00 pm)
Low48 °F (Aug 3, 6:00 am)28% (Aug 14, 2:00 pm)29.65 "Hg (Aug 11, 4:00 pm)
Average58 °F77%30.02 "Hg
* Reported Aug 1 10:00 am — Aug 16 10:00 am, Buenos Aires. Weather by CustomWeather, © 2017

Note: Actual official high and low records may vary slightly from our data, if they occured in-between our weather recording intervals... More about our weather records

Advertising

Buenos Aires Weather History for the Previous 24 Hours

Scroll right to see more
 ConditionsComfort  
Time TempWeatherWind HumidityBarometerVisibility
10:00 am
Wed, Aug 16
57 °FPassing clouds.3 mph51%30.24 "HgN/A
9:00 am54 °FPassing clouds.5 mph67%30.24 "HgN/A
8:00 am52 °FPassing clouds.5 mph72%30.21 "HgN/A
7:00 am52 °FClear.3 mph72%30.21 "Hg10 mi
6:00 am54 °FPassing clouds.5 mph63%30.18 "HgN/A
5:00 am52 °FPassing clouds.3 mph72%30.18 "HgN/A
4:00 am54 °FClear.3 mph72%30.18 "Hg10 mi
3:00 am52 °FClear.3 mph77%30.15 "Hg10 mi
2:00 am55 °FClear.5 mph63%30.15 "Hg10 mi
1:00 am57 °FClear.No wind59%30.15 "Hg10 mi
12:00 am59 °FClear.3 mph55%30.15 "Hg10 mi
11:00 pm
Tue, Aug 15
59 °FClear.No wind55%30.12 "Hg10 mi
10:00 pm59 °FPartly cloudy.8 mph55%30.09 "HgN/A
9:00 pm59 °FPassing clouds.9 mph63%30.09 "HgN/A
8:00 pm66 °FPassing clouds.6 mph49%30.04 "HgN/A
7:00 pm66 °FPassing clouds.7 mph49%30.01 "HgN/A
6:00 pm66 °FSunny.10 mph52%29.98 "Hg10 mi
5:00 pm64 °FSunny.8 mph68%29.95 "Hg10 mi
4:00 pm68 °FSunny.13 mph49%29.95 "Hg10 mi
3:00 pm68 °FSunny.12 mph46%29.98 "Hg10 mi
2:00 pm64 °FSunny.7 mph73%29.98 "Hg10 mi
1:00 pm63 °FSunny.8 mph73%30.04 "Hg10 mi
12:00 pm61 °FSunny.7 mph72%30.07 "Hg10 mi
11:00 am59 °FSunny.8 mph68%30.07 "Hg10 mi
Weather by CustomWeather, © 2017

See weather overviewHow to use our weather pages